FW3072 Weather Reports


time (UTC)temp
C
wind
direction
speed
KPH
gust
KPH
rain 1hr
cm
rain 24hr
cm
rain mn
cm
humidity
%
barometer
mb
20220124164202 -8 167 3.2 9.7 0.00 0.00 0.00 73 1011.1
20220124163203 -8 216 3.2 9.7 0.00 0.00 0.00 73 1011.2
20220124162202 -8 218 3.2 9.7 0.00 0.00 0.00 73 1011.4
20220124161202 -9 212 3.2 12.9 0.00 0.00 0.00 74 1011.7
20220124160201 -9 209 3.2 11.3 0.00 0.00 0.00 75 1011.9
20220124155203 -10 204 3.2 9.7 0.00 0.00 0.00 75 1012.0
20220124154202 -10 189 3.2 8.0 0.00 0.00 0.00 76 1011.9
20220124153202 -10 171 4.8 8.0 0.00 0.00 0.00 78 1012.1
20220124152203 -11 168 1.6 8.0 0.00 0.00 0.00 80 1012.1
20220124151201 -11 154 3.2 8.0 0.00 0.00 0.00 81 1012.1
20220124150202 -12 154 3.2 8.0 0.00 0.00 0.00 82 1012.5
20220124145202 -12 149 1.6 9.7 0.00 0.00 0.00 83 1012.7
20220124144201 -12 191 3.2 6.4 0.00 0.00 0.00 84 1012.8
20220124143203 -13 221 4.8 8.0 0.00 0.00 0.00 84 1013.6
20220124142201 -13 205 3.2 6.4 0.00 0.00 0.00 85 1013.4
20220124141202 -13 111 0.0 4.8 0.00 0.00 0.00 85 1013.4
20220124140201 -14 81 0.0 4.8 0.00 0.00 0.00 85 1013.4
20220124135203 -15 80 1.6 4.8 0.00 0.00 0.00 85 1013.6
20220124134202 -15 80 0.0 4.8 0.00 0.00 0.00 85 1013.8
20220124133201 -16 36 1.6 3.2 0.00 0.00 0.00 85 1013.9
20220124132202 -16 16 0.0 1.6 0.00 0.00 0.00 85 1014.2
20220124131202 -17 16 0.0 0.0 0.00 0.00 0.00 85 1014.4
20220124130201 -18 16 0.0 0.0 0.00 0.00 0.00 84 1014.4
20220124125204 -18 16 0.0 0.0 0.00 0.00 0.00 84 1014.5
20220124124202 -18 16 0.0 0.0 0.00 0.00 0.00 84 1014.5
20220124123204 -19 16 0.0 0.0 0.00 0.00 0.00 84 1014.4
20220124122201 -20 16 0.0 0.0 0.00 0.00 0.00 83 1014.6
20220124121202 -20 16 0.0 0.0 0.00 0.00 0.00 83 1014.3
20220124120201 -20 16 0.0 0.0 0.00 0.00 0.00 83 1014.4
20220124115202 -20 16 0.0 1.6 0.00 0.00 0.00 83 1014.3
20220124114204 -20 16 0.0 1.6 0.00 0.00 0.00 83 1014.3
20220124113203 -20 16 1.6 1.6 0.00 0.00 0.00 83 1014.1
20220124112201 -20 16 0.0 0.0 0.00 0.00 0.00 83 1014.4
20220124111202 -20 16 0.0 0.0 0.00 0.00 0.00 83 1014.0
20220124110202 -20 16 0.0 0.0 0.00 0.00 0.00 83 1013.9
20220124105203 -20 16 0.0 0.0 0.00 0.00 0.00 83 1014.1
20220124104201 -20 16 0.0 0.0 0.00 0.00 0.00 83 1014.1
20220124103202 -20 16 0.0 0.0 0.00 0.00 0.00 83 1014.4
20220124102201 -19 16 0.0 0.0 0.00 0.00 0.00 83 1014.4
20220124101202 -19 16 0.0 0.0 0.00 0.00 0.00 83 1014.3
20220124100201 -19 16 0.0 0.0 0.00 0.00 0.00 83 1014.1
20220124095205 -18 16 0.0 0.0 0.00 0.00 0.00 83 1014.0
20220124094202 -18 16 0.0 0.0 0.00 0.00 0.00 83 1014.0
20220124093202 -18 16 0.0 0.0 0.00 0.00 0.00 83 1013.9
20220124092202 -18 16 0.0 0.0 0.00 0.00 0.00 83 1013.8
20220124091204 -18 16 0.0 0.0 0.00 0.00 0.00 83 1013.9
20220124090202 -18 16 0.0 1.6 0.00 0.00 0.00 83 1013.8
20220124085201 -18 16 0.0 0.0 0.00 0.00 0.00 83 1013.9
20220124084203 -17 16 0.0 0.0 0.00 0.00 0.00 83 1013.9
20220124083203 -17 16 0.0 0.0 0.00 0.00 0.00 83 1014.1
20220124082204 -17 16 0.0 0.0 0.00 0.00 0.00 83 1014.1
20220124081204 -17 16 0.0 0.0 0.00 0.00 0.00 83 1014.2
20220124080202 -16 16 0.0 0.0 0.00 0.00 0.00 83 1014.2
20220124075201 -16 16 0.0 0.0 0.00 0.00 0.00 83 1014.3
20220124074203 -16 16 0.0 3.2 0.00 0.00 0.00 83 1014.3
20220124073201 -16 16 0.0 0.0 0.00 0.00 0.00 83 1014.2
20220124072203 -16 16 0.0 0.0 0.00 0.00 0.00 83 1014.2
20220124071203 -16 16 0.0 0.0 0.00 0.00 0.00 82 1014.1
20220124070201 -16 16 0.0 0.0 0.00 0.00 0.00 81 1014.0
20220124065203 -16 16 0.0 0.0 0.00 0.00 0.00 81 1014.0
20220124064204 -16 16 0.0 0.0 0.00 0.00 0.00 81 1014.0
20220124063202 -15 16 0.0 0.0 0.00 0.00 0.00 81 1014.0
20220124062202 -15 16 0.0 3.2 0.00 0.00 0.00 80 1014.1
20220124061203 -15 16 0.0 3.2 0.00 0.00 0.00 80 1014.0
20220124060201 -14 16 3.2 3.2 0.00 0.00 0.00 79 1014.1
20220124055203 -13 16 0.0 0.0 0.00 0.00 0.00 80 1014.1
20220124054201 -13 16 0.0 0.0 0.00 0.00 0.00 79 1014.2
20220124053203 -12 16 0.0 1.6 0.00 0.00 0.00 78 1014.4
20220124052202 -12 16 0.0 1.6 0.00 0.00 0.00 78 1014.6
20220124051201 -12 16 0.0 3.2 0.00 0.00 0.00 78 1014.7
20220124050203 -11 17 0.0 4.8 0.00 0.00 0.00 78 1014.7
20220124045201 -11 37 1.6 4.8 0.00 0.00 0.00 78 1014.8
20220124044203 -11 92 0.0 0.0 0.00 0.00 0.00 79 1014.9
20220124043202 -12 92 0.0 0.0 0.00 0.00 0.00 79 1015.0
20220124042201 -12 92 0.0 0.0 0.00 0.00 0.00 78 1015.0
20220124041202 -12 92 0.0 0.0 0.00 0.00 0.00 78 1014.8
20220124040201 -12 92 0.0 0.0 0.00 0.00 0.00 78 1014.7
20220124035206 -12 92 0.0 3.2 0.00 0.00 0.00 78 1014.7
20220124034202 -12 92 1.6 4.8 0.00 0.00 0.00 78 1014.7
20220124033202 -12 359 0.0 6.4 0.00 0.00 0.00 79 1014.7
20220124032201 -13 341 1.6 3.2 0.00 0.00 0.00 79 1014.6
20220124031202 -13 342 0.0 4.8 0.00 0.00 0.00 78 1014.6
20220124030203 -13 347 1.6 4.8 0.00 0.00 0.00 76 1014.5
20220124025201 -13 349 0.0 1.6 0.00 0.00 0.00 76 1014.3
20220124024202 -13 349 0.0 0.0 0.00 0.00 0.00 75 1014.1
20220124023209 -13 349 0.0 1.6 0.00 0.00 0.00 74 1014.1
20220124022202 -12 349 0.0 0.0 0.00 0.00 0.00 73 1014.1
20220124021202 -12 348 0.0 3.2 0.00 0.00 0.00 73 1014.0
20220124020202 -12 348 0.0 6.4 0.00 0.00 0.00 71 1013.8
20220124015202 -12 345 1.6 6.4 0.00 0.00 0.00 71 1013.7
20220124014201 -12 331 3.2 6.4 0.00 0.00 0.00 70 1013.6
20220124013203 -11 353 1.6 8.0 0.00 0.00 0.00 68 1013.5
20220124012202 -11 15 0.0 6.4 0.00 0.00 0.00 68 1013.5
20220124011202 -11 28 1.6 8.0 0.00 0.00 0.00 67 1013.3
20220124010202 -11 23 3.2 9.7 0.00 0.00 0.00 67 1013.2
20220124005202 -10 344 3.2 12.9 0.00 0.00 0.00 68 1013.1
20220124004203 -10 18 1.6 6.4 0.00 0.00 0.00 68 1012.9
20220124003202 -10 27 3.2 14.5 0.00 0.00 0.00 68 1012.8
20220124002201 -10 355 3.2 9.7 0.00 0.00 0.00 69 1012.7
20220124001202 -10 4 4.8 16.1 0.00 0.00 0.00 69 1012.6
20220124000204 -9 5 1.6 6.4 0.00 0.00 0.00 70 1012.4
20220123235201 -9 6 1.6 8.0 0.00 0.00 0.00 71 1012.3
20220123234202 -8 330 1.6 9.7 0.00 0.00 0.00 72 1012.3
20220123233202 -8 355 1.6 14.5 0.00 0.00 0.00 73 1012.3
20220123232202 -8 330 1.6 6.4 0.00 0.00 0.00 75 1012.2
20220123231202 -8 344 3.2 6.4 0.00 0.00 0.00 76 1012.1
20220123230201 -8 344 3.2 8.0 0.00 0.00 0.00 78 1012.0
20220123225202 -8 358 1.6 11.3 0.00 0.00 0.00 80 1012.0
20220123224201 -8 332 1.6 4.8 0.00 0.00 0.00 83 1011.7
20220123223202 -8 360 0.0 0.0 0.00 0.00 0.00 83 1011.5
20220123222201 -8 360 0.0 0.0 0.00 0.00 0.00 83 1011.3
20220123221203 -8 360 0.0 0.0 0.00 0.00 0.00 83 1011.1
20220123220204 -8 360 0.0 1.6 0.00 0.00 0.00 83 1011.0
20220123215201 -8 359 0.0 4.8 0.00 0.00 0.00 82 1011.0
20220123214202 -8 355 0.0 3.2 0.00 0.00 0.00 83 1010.9
20220123213202 -8 354 1.6 6.4 0.00 0.00 0.00 82 1010.8
20220123212203 -7 36 3.2 6.4 0.00 0.00 0.00 83 1010.6
20220123211205 -7 18 3.2 14.5 0.00 0.00 0.00 82 1010.5
20220123210203 -7 61 3.2 6.4 0.00 0.00 0.00 83 1010.5
20220123205202 -7 21 3.2 8.0 0.00 0.00 0.00 82 1010.4
20220123204203 -7 67 4.8 8.0 0.00 0.00 0.00 82 1010.3
20220123203201 -7 61 4.8 16.1 0.00 0.00 0.00 81 1010.3
20220123202204 -7 49 4.8 11.3 0.00 0.00 0.00 80 1010.1
20220123201204 -7 55 4.8 12.9 0.00 0.00 0.00 80 1010.0
20220123200202 -7 64 6.4 11.3 0.00 0.00 0.00 80 1009.9
20220123195201 -7 61 4.8 14.5 0.00 0.00 0.00 81 1009.8
20220123194202 -7 67 6.4 14.5 0.00 0.00 0.00 81 1009.7
20220123193202 -7 32 6.4 14.5 0.00 0.00 0.00 81 1009.8
20220123192203 -6 45 4.8 12.9 0.00 0.00 0.00 80 1009.7
20220123191202 -6 50 4.8 16.1 0.00 0.00 0.00 79 1009.7
20220123190203 -6 7 3.2 12.9 0.00 0.00 0.00 80 1009.7
20220123185201 -6 61 6.4 14.5 0.00 0.00 0.00 80 1009.7
20220123184203 -6 46 1.6 12.9 0.00 0.00 0.00 81 1009.6
20220123183202 -6 30 4.8 9.7 0.00 0.00 0.00 81 1009.7
20220123182203 -6 49 3.2 17.7 0.00 0.00 0.00 80 1009.7
20220123181202 -5 31 4.8 16.1 0.00 0.00 0.00 80 1009.7
20220123180203 -5 16 6.4 12.9 0.00 0.00 0.00 81 1009.6
20220123175201 -5 4 8.0 17.7 0.00 0.00 0.00 82 1009.9
20220123174202 -5 357 6.4 14.5 0.00 0.00 0.00 82 1009.8
20220123173204 -5 351 4.8 12.9 0.00 0.00 0.00 83 1009.9
20220123172202 -5 327 3.2 12.9 0.00 0.00 0.00 83 1010.0
20220123171202 -5 316 3.2 8.0 0.00 0.00 0.00 84 1010.1
20220123170203 -5 348 3.2 8.0 0.00 0.00 0.00 84 1010.3
20220123165201 -5 331 3.2 12.9 0.00 0.00 0.00 85 1010.5